San Francisco, CA

11:43 PM PDT on July 22, 2017 (GMT -0700)
San Francisco International

Weather History for KSFO - February, 2005

Change the Weather History Date:

Sunday, February 6, 2005

  Actual Average Record
Temperature  
Mean Temperature 52 °F 52 °F  
Max Temperature 57 °F 59 °F 72 °F (2011)
Min Temperature 46 °F 46 °F 31 °F (1989)
Degree Days  
Heating Degree Days 14 13  
Month to date heating degree days 78  
Since 1 July heating degree days 1545  
Cooling Degree Days 0 0  
Month to date cooling degree days 0  
Year to date cooling degree days 0  
Growing Degree Days 2 (Base 50)    
Moisture  
Dew Point 46 °F    
Average Humidity 81    
Maximum Humidity 96    
Minimum Humidity 62    
Precipitation  
Precipitation 0.00 in 0.15 in 1.66 in (1998)
Month to date precipitation 0.90  
Year to date precipitation 5.09  
Sea Level Pressure  
Sea Level Pressure 29.96 in    
Wind  
Wind Speed 11 mph (West)    
Max Wind Speed 23 mph    
Max Gust Speed 30 mph    
Visibility 10 miles    
Events      
T = Trace of Precipitation, MM = Missing Value Source: NWS Daily Summary

Daily Weather History Graph

Daily Weather History Graph

Search for Another Location

Airport or City:

Trip Planner

Search our weather history database for the weather conditions in past years. The results will help you decide how hot, cold, wet, or windy it might be!

Date:

Astronomy

Feb. 06, 2005 Rise Set
Actual Time 7:08 AM PST 5:39 PM PST
Civil Twilight 6:41 AM PST 6:06 PM PST
Nautical Twilight 6:10 AM PST 6:37 PM PST
Astronomical Twilight 5:39 AM PST 7:08 PM PST
Moon 5:43 AM PST (2/6) 2:59 PM PST (2/6)
Length of Visible Light 11h 25m
Length of Day
10h 30m
Waning Crescent, 7% of the Moon is Illuminated
Feb 6
Waning Crescent
Feb 8
New
Feb 15
First Quarter
Feb 23
Full
Mar 3
Last Quarter

Hourly Weather History & Observations

Time (PST) Temp. Windchill Dew Point Humidity Pressure Visibility Wind Dir Wind Speed Gust Speed Precip Events Conditions
12:56 AM 52.0 °F - 48.0 °F 86% 29.91 in 10.0 mi West 10.4 mph - N/A   Scattered Clouds
1:56 AM 50.0 °F - 46.9 °F 89% 29.90 in 10.0 mi West 4.6 mph - N/A   Scattered Clouds
2:56 AM 48.9 °F - 46.9 °F 93% 29.91 in 10.0 mi West 10.4 mph - N/A   Partly Cloudy
3:56 AM 48.9 °F - 46.0 °F 90% 29.90 in 10.0 mi West 6.9 mph - N/A   Partly Cloudy
4:56 AM 46.9 °F - 45.0 °F 93% 29.91 in 10.0 mi West 6.9 mph - N/A   Partly Cloudy
5:56 AM 50.0 °F - 45.0 °F 83% 29.92 in 10.0 mi Calm Calm - N/A   Partly Cloudy
6:56 AM 46.0 °F 44.8 °F 45.0 °F 96% 29.93 in 10.0 mi SSW 3.5 mph - N/A   Partly Cloudy
7:56 AM 46.9 °F - 45.0 °F 93% 29.96 in 10.0 mi WNW 5.8 mph - N/A   Scattered Clouds
8:56 AM 51.1 °F - 46.9 °F 86% 29.96 in 10.0 mi WNW 4.6 mph - N/A   Scattered Clouds
9:56 AM 54.0 °F - 44.1 °F 69% 29.97 in 10.0 mi West 11.5 mph - N/A   Scattered Clouds
10:56 AM 55.0 °F - 43.0 °F 64% 29.98 in 10.0 mi WSW 11.5 mph - N/A   Partly Cloudy
11:56 AM 55.9 °F - 44.1 °F 64% 29.97 in 10.0 mi West 16.1 mph - N/A   Partly Cloudy
12:56 PM 55.9 °F - 44.1 °F 64% 29.96 in 10.0 mi West 16.1 mph 19.6 mph N/A   Partly Cloudy
1:56 PM 57.0 °F - 44.1 °F 62% 29.95 in 10.0 mi West 12.7 mph - N/A   Scattered Clouds
2:56 PM 57.0 °F - 46.0 °F 67% 29.95 in 10.0 mi West 17.3 mph 23.0 mph N/A   Scattered Clouds
3:56 PM 54.0 °F - 46.9 °F 77% 29.96 in 10.0 mi West 19.6 mph - N/A   Scattered Clouds
4:56 PM 53.1 °F - 46.9 °F 80% 29.97 in 10.0 mi West 20.7 mph 28.8 mph N/A   Scattered Clouds
5:56 PM 53.1 °F - 46.9 °F 80% 29.98 in 10.0 mi West 19.6 mph 28.8 mph N/A   Mostly Cloudy
6:56 PM 53.1 °F - 46.9 °F 80% 29.98 in 10.0 mi West 23.0 mph 29.9 mph N/A   Mostly Cloudy
7:56 PM 53.1 °F - 48.0 °F 83% 29.99 in 10.0 mi West 20.7 mph 26.5 mph N/A   Mostly Cloudy
8:56 PM 53.1 °F - 48.0 °F 83% 30.01 in 10.0 mi West 17.3 mph - N/A   Mostly Cloudy
9:56 PM 52.0 °F - 48.0 °F 86% 30.02 in 10.0 mi West 16.1 mph - N/A   Overcast
10:56 PM 52.0 °F - 50.0 °F 93% 30.03 in 10.0 mi West 13.8 mph - N/A   Mostly Cloudy
11:56 PM 52.0 °F - 50.0 °F 93% 30.04 in 10.0 mi WSW 9.2 mph - N/A   Overcast